Home   Weather   Berkeley   Past weeks

Flag for USA Past Weather in Berkeley, California, USA — Yesterday and Last 2 Weeks

Now
58 °F

Light rain. Overcast.


Feels Like: 55 °F
Forecast: 50 / 59 °F
Wind: 16 mph from Southwest

Location: Metro Oakland International Airport

Current Time: Feb 20, 2017 at 7:48:37 pm

Latest Report: Feb 20, 2017 at 7:00 pm


Visibility: 10 mi

Pressure: 29.93 "Hg

Humidity: 87%

Dew Point: 54 °F

Location of BerkeleyLocation

Past Weather in Berkeley — Graph

°F

Berkeley Temperature Yesterday

Maximum temperature yesterday: 57 °F (at 1:53 pm)
Minimum temperature yesterday: 51 °F (at 3:53 am)
Average temperature yesterday: 55 °F

High & Low Weather Summary for the Past Weeks

 TemperatureHumidityPressure
High65 °F (Feb 14, 2:53 pm)100% (Feb 8, 12:01 am)30.26 "Hg (Feb 8, 12:01 am)
Low43 °F (Feb 12, 6:53 am)32% (Feb 12, 2:53 pm)29.15 "Hg (Feb 17, 3:53 pm)
Average57 °F85%29.93 "Hg
* Reported Feb 5 5:53 pm — Feb 20 5:53 pm, Berkeley, Weather by CustomWeather, © 2017

Note: Actual official high and low records may vary slightly from our data, if they occured in-between our weather recording intervals... More about our weather records

Advertising

Berkeley Weather History for the Previous 24 Hours

Scroll right to see more
 ConditionsComfort  
Time TempWeatherWind HumidityBarometerVisibility
5:53 pm
Mon, Feb 20
56 °FLight rain. Overcast.5 mph97%29.91 "Hg9 mi
5:41 pm56 °FRain. Fog.6 mph100%29.92 "Hg2 mi
5:28 pm56 °FRain. Fog.3 mph100%29.94 "Hg1 mi
4:53 pm56 °FHeavy rain. Fog.3 mph100%29.91 "Hg1 mi
3:53 pm57 °FRain. Fog.8 mph87%29.92 "Hg4 mi
3:13 pm57 °FRain. Fog.13 mph83%29.93 "Hg3 mi
3:01 pm57 °FHeavy rain. Fog.9 mph83%29.95 "Hg2 mi
1:53 pm58 °FLight rain. Overcast.17 mph81%29.93 "Hg9 mi
12:53 pm58 °FRain. Fog.14 mph84%29.97 "Hg3 mi
11:53 am58 °FRain. Fog.14 mph87%30.00 "Hg6 mi
10:53 am58 °FLight rain. Mostly cloudy.15 mph87%30.02 "Hg9 mi
9:53 am58 °FLight rain. Cloudy.12 mph87%30.00 "Hg10 mi
8:53 am57 °FLight rain. More clouds than sun.14 mph87%29.96 "Hg10 mi
8:36 am58 °FLight rain. More clouds than sun.12 mph84%29.96 "Hg10 mi
7:53 am57 °FLight rain. Cloudy.14 mph83%29.96 "Hg8 mi
6:53 am57 °FLight rain. Overcast.16 mph90%29.91 "Hg10 mi
6:17 am56 °FLight rain. Mostly cloudy.17 mph97%29.93 "Hg10 mi
5:53 am56 °FLight rain. Overcast.13 mph97%29.92 "Hg7 mi
5:30 am56 °FHeavy rain. Fog.15 mph97%29.90 "Hg3 mi
5:19 am56 °FRain. Fog.12 mph97%29.90 "Hg2 mi
4:53 am56 °FLight rain. Fog.14 mph93%29.88 "Hg6 mi
3:53 am56 °FRain. Fog.20 mph93%29.86 "Hg4 mi
3:24 am56 °FRain. Fog.18 mph93%29.88 "Hg4 mi
3:03 am56 °FHeavy rain. Fog.20 mph93%29.88 "Hg4 mi
2:53 am56 °FHeavy rain. Fog.18 mph93%29.87 "Hg4 mi
2:28 am56 °FRain. Fog.20 mph93%29.88 "Hg4 mi
1:53 am55 °FRain. Mostly cloudy.17 mph96%29.87 "Hg7 mi
1:31 am55 °FLight rain. Overcast.21 mph96%29.88 "Hg10 mi
12:53 am55 °FLight rain. Overcast.21 mph93%29.85 "Hg10 mi
11:53 pm
Sun, Feb 19
56 °FLight rain. Mostly cloudy.24 mph87%29.88 "Hg10 mi
10:53 pm56 °FMostly cloudy.23 mph84%29.88 "Hg10 mi
10:24 pm57 °FMostly cloudy.23 mph78%29.89 "Hg10 mi
9:53 pm57 °FOvercast.23 mph81%29.89 "Hg10 mi
8:53 pm57 °FMostly cloudy.16 mph81%29.90 "Hg10 mi
7:53 pm57 °FMostly cloudy.17 mph78%29.88 "Hg10 mi
Weather by CustomWeather, © 2017

See weather overviewHow to use our weather pages